User: anonymous   Login
Location: Newark
(34.1333°N, 7.9667°W)
Time: 20:43:52
(UTC+00:00)
Language:

COSMOS 1408 DEB - Orbit

View from above orbital plane
View from above orbital plane
View from above satellite
View from above satellite

Ground track
Ground track

The orbit data is extracted from the following two-line orbital elements,

1 51579U 82092BNG 24057.28930045  .00049135  00000-0  10674-2 0  9999
2 51579  82.4962   7.0705 0040538  35.0014 325.3885 15.43247971117121
Epoch (UTC): 26 February 2024 06:56:35
Eccentricity: 0.0040538
inclination: 82.4962°
perigee height: 409 km
apogee height: 464 km
right ascension of ascending node: 7.0705°
argument of perigee: 35.0014°
revolutions per day: 15.43247971
mean anomaly at epoch: 325.3885°
orbit number at epoch: 11712

The dashed part of the orbit path shows where the satellite is in the earth's shadow,  

DLR